Time,TemperatureF,DewpointF,PressureIn,WindDirection,WindDirectionDegrees,WindSpeedMPH,WindSpeedGustMPH,Humidity,HourlyPrecipIn,Conditions,Clouds,dailyrainin,SoftwareType,DateUTC
2013-02-06 00:01:00,34.0,28.0,-100.00,NNW,330,3.0,4.0,79,-99.99,,,-99.99,,2013-02-06 06:01:00,
2013-02-06 00:11:00,34.0,29.0,-100.00,West,270,1.0,2.0,80,-99.99,,,-99.99,,2013-02-06 06:11:00,
2013-02-06 00:21:00,34.0,29.0,-100.00,West,270,1.0,2.0,80,-99.99,,,-99.99,,2013-02-06 06:21:00,
2013-02-06 00:32:00,33.0,28.0,-100.00,WSW,255,1.0,1.0,81,-99.99,,,-99.99,,2013-02-06 06:32:00,
2013-02-06 00:42:00,33.0,28.0,-100.00,WSW,255,1.0,1.0,81,-99.99,,,-99.99,,2013-02-06 06:42:00,
2013-02-06 00:52:00,33.0,28.0,-100.00,NW,310,2.0,3.0,83,-99.99,,,-99.99,,2013-02-06 06:52:00,
2013-02-06 01:01:00,33.0,28.0,-100.00,NW,310,2.0,3.0,83,-99.99,,,-99.99,,2013-02-06 07:01:00,
2013-02-06 01:11:00,31.0,27.0,-100.00,WSW,245,1.0,2.0,84,-99.99,,,-99.99,,2013-02-06 07:11:00,
2013-02-06 01:22:00,30.0,27.0,-100.00,NW,315,3.0,3.0,86,-99.99,,,-99.99,,2013-02-06 07:22:00,
2013-02-06 01:32:00,30.0,27.0,-100.00,NW,315,3.0,3.0,86,-99.99,,,-99.99,,2013-02-06 07:32:00,
2013-02-06 01:42:00,31.0,28.0,-100.00,NW,305,1.0,1.0,88,-99.99,,,-99.99,,2013-02-06 07:42:00,
2013-02-06 01:52:00,30.0,27.0,-100.00,NW,305,2.0,2.0,89,-99.99,,,-99.99,,2013-02-06 07:52:00,
2013-02-06 02:01:00,30.0,27.0,-100.00,NW,305,2.0,2.0,89,-99.99,,,-99.99,,2013-02-06 08:01:00,
2013-02-06 02:11:00,29.0,26.0,-100.00,WNW,300,1.0,1.0,90,-99.99,,,-99.99,,2013-02-06 08:11:00,
2013-02-06 02:21:00,29.0,27.0,-100.00,WSW,245,2.0,3.0,91,-99.99,,,-99.99,,2013-02-06 08:21:00,
2013-02-06 02:31:00,29.0,27.0,-100.00,WSW,245,2.0,3.0,91,-99.99,,,-99.99,,2013-02-06 08:31:00,
2013-02-06 02:42:00,29.0,27.0,-100.00,WSW,245,2.0,3.0,91,-99.99,,,-99.99,,2013-02-06 08:42:00,
2013-02-06 02:53:00,29.0,27.0,-100.00,WNW,295,3.0,3.0,92,-99.99,,,-99.99,,2013-02-06 08:53:00,
2013-02-06 03:01:00,29.0,27.0,-100.00,WNW,295,3.0,3.0,92,-99.99,,,-99.99,,2013-02-06 09:01:00,
2013-02-06 03:11:00,29.0,27.0,-100.00,WNW,300,1.0,1.0,92,-99.99,,,-99.99,,2013-02-06 09:11:00,
2013-02-06 03:21:00,29.0,27.0,-100.00,West,270,2.0,3.0,93,-99.99,,,-99.99,,2013-02-06 09:21:00,
2013-02-06 03:32:00,29.0,27.0,-100.00,West,270,2.0,3.0,93,-99.99,,,-99.99,,2013-02-06 09:32:00,
2013-02-06 03:41:00,27.0,26.0,-100.00,West,275,3.0,3.0,93,-99.99,,,-99.99,,2013-02-06 09:41:00,
2013-02-06 03:52:00,27.0,26.0,-100.00,NW,315,2.0,2.0,93,-99.99,,,-99.99,,2013-02-06 09:52:00,
2013-02-06 04:01:00,27.0,26.0,-100.00,NW,315,2.0,2.0,93,-99.99,,,-99.99,,2013-02-06 10:01:00,
2013-02-06 04:11:00,29.0,27.0,-100.00,West,265,0.0,0.0,94,-99.99,,,-99.99,,2013-02-06 10:11:00,
2013-02-06 04:21:00,27.0,25.0,-100.00,NNW,335,0.0,0.0,94,-99.99,,,-99.99,,2013-02-06 10:21:00,
2013-02-06 04:31:00,27.0,25.0,-100.00,NNW,335,0.0,0.0,94,-99.99,,,-99.99,,2013-02-06 10:31:00,
2013-02-06 04:42:00,27.0,26.0,-100.00,NNW,335,0.0,0.0,95,-99.99,,,-99.99,,2013-02-06 10:42:00,
2013-02-06 04:52:00,27.0,26.0,-100.00,NNW,340,0.0,1.0,95,-99.99,,,-99.99,,2013-02-06 10:52:00,
2013-02-06 05:01:00,27.0,26.0,-100.00,NNW,340,0.0,1.0,95,-99.99,,,-99.99,,2013-02-06 11:01:00,
2013-02-06 05:11:00,27.0,26.0,-100.00,SSW,210,0.0,0.0,95,-99.99,,,-99.99,,2013-02-06 11:11:00,
2013-02-06 05:22:00,27.0,26.0,-100.00,WNW,295,1.0,1.0,95,-99.99,,,-99.99,,2013-02-06 11:22:00,
2013-02-06 05:32:00,27.0,26.0,-100.00,WNW,295,1.0,1.0,95,-99.99,,,-99.99,,2013-02-06 11:32:00,
2013-02-06 05:42:00,26.0,25.0,-100.00,SSE,155,0.0,1.0,95,-99.99,,,-99.99,,2013-02-06 11:42:00,
2013-02-06 05:53:00,27.0,26.0,-100.00,SW,225,0.0,0.0,96,-99.99,,,-99.99,,2013-02-06 11:53:00,
2013-02-06 06:02:00,27.0,26.0,-100.00,SW,225,0.0,0.0,96,-99.99,,,-99.99,,2013-02-06 12:02:00,
2013-02-06 06:12:00,26.0,25.0,-100.00,West,270,1.0,2.0,96,-99.99,,,-99.99,,2013-02-06 12:12:00,
2013-02-06 06:22:00,26.0,25.0,-100.00,SSW,195,0.0,0.0,96,-99.99,,,-99.99,,2013-02-06 12:22:00,
2013-02-06 06:30:00,25.0,24.0,-100.00,NE,35,0.0,0.0,96,-99.99,,,-99.99,,2013-02-06 12:30:00,
2013-02-06 06:32:00,26.0,25.0,-100.00,SSW,195,0.0,0.0,96,-99.99,,,-99.99,,2013-02-06 12:32:00,
2013-02-06 06:42:00,26.0,25.0,-100.00,SSE,165,0.0,0.0,96,-99.99,,,-99.99,,2013-02-06 12:42:00,
2013-02-06 06:52:00,25.0,24.0,-100.00,South,190,1.0,2.0,96,-99.99,,,-99.99,,2013-02-06 12:52:00,
2013-02-06 07:01:00,25.0,24.0,-100.00,South,190,1.0,2.0,96,-99.99,,,-99.99,,2013-02-06 13:01:00,
2013-02-06 07:12:00,25.0,24.0,-100.00,NE,35,0.0,0.0,96,-99.99,,,-99.99,,2013-02-06 13:12:00,
2013-02-06 07:22:00,25.0,24.0,-100.00,NE,35,0.0,0.0,96,-99.99,,,-99.99,,2013-02-06 13:22:00,
2013-02-06 08:32:00,30.0,29.0,-100.00,ENE,75,1.0,1.0,96,-99.99,,,-99.99,,2013-02-06 14:32:00,
2013-02-06 08:42:00,30.0,29.0,-100.00,ENE,75,1.0,1.0,96,-99.99,,,-99.99,,2013-02-06 14:42:00,
2013-02-06 08:52:00,33.0,32.0,-100.00,NE,40,0.0,1.0,96,-99.99,,,-99.99,,2013-02-06 14:52:00,
2013-02-06 09:01:00,33.0,32.0,-100.00,NE,40,0.0,1.0,96,-99.99,,,-99.99,,2013-02-06 15:01:00,
2013-02-06 09:11:00,34.0,33.0,-100.00,SSE,160,1.0,1.0,96,-99.99,,,-99.99,,2013-02-06 15:11:00,
2013-02-06 09:21:00,36.0,34.0,-100.00,ESE,115,1.0,1.0,94,-99.99,,,-99.99,,2013-02-06 15:21:00,
2013-02-06 09:31:00,38.0,35.0,-100.00,East,80,1.0,3.0,89,-99.99,,,-99.99,,2013-02-06 15:31:00,
2013-02-06 09:42:00,38.0,35.0,-100.00,East,80,1.0,3.0,89,-99.99,,,-99.99,,2013-02-06 15:42:00,
2013-02-06 09:52:00,39.0,34.0,-100.00,ENE,70,2.0,3.0,81,-99.99,,,-99.99,,2013-02-06 15:52:00,
2013-02-06 10:11:00,42.0,33.0,-100.00,ENE,60,2.0,3.0,72,-99.99,,,-99.99,,2013-02-06 16:11:00,
2013-02-06 10:21:00,41.0,30.0,-100.00,East,100,6.0,8.0,63,-99.99,,,-99.99,,2013-02-06 16:21:00,
2013-02-06 10:32:00,41.0,30.0,-100.00,East,100,6.0,8.0,63,-99.99,,,-99.99,,2013-02-06 16:32:00,
2013-02-06 10:42:00,41.0,28.0,-100.00,ENE,65,4.0,6.0,59,-99.99,,,-99.99,,2013-02-06 16:42:00,
2013-02-06 10:52:00,43.0,29.0,-100.00,East,95,4.0,6.0,57,-99.99,,,-99.99,,2013-02-06 16:52:00,
2013-02-06 11:02:00,43.0,29.0,-100.00,East,95,4.0,6.0,57,-99.99,,,-99.99,,2013-02-06 17:02:00,
2013-02-06 11:11:00,42.0,27.0,-100.00,ESE,115,6.0,9.0,54,-99.99,,,-99.99,,2013-02-06 17:11:00,
2013-02-06 11:21:00,43.0,27.0,-100.00,ESE,110,4.0,6.0,52,-99.99,,,-99.99,,2013-02-06 17:21:00,
2013-02-06 11:32:00,43.0,27.0,-100.00,ESE,110,4.0,6.0,52,-99.99,,,-99.99,,2013-02-06 17:32:00,
2013-02-06 11:42:00,43.0,27.0,-100.00,ESE,115,4.0,6.0,52,-99.99,,,-99.99,,2013-02-06 17:42:00,
2013-02-06 11:52:00,44.0,27.0,-100.00,South,170,4.0,6.0,50,-99.99,,,-99.99,,2013-02-06 17:52:00,
2013-02-06 12:01:00,44.0,27.0,-100.00,South,170,4.0,6.0,50,-99.99,,,-99.99,,2013-02-06 18:01:00,
2013-02-06 12:11:00,44.0,26.0,-100.00,ESE,115,8.0,10.0,49,-99.99,,,-99.99,,2013-02-06 18:11:00,
2013-02-06 12:23:00,45.0,27.0,-100.00,SW,225,6.0,10.0,48,-99.99,,,-99.99,,2013-02-06 18:23:00,
2013-02-06 12:32:00,45.0,27.0,-100.00,SW,225,6.0,10.0,48,-99.99,,,-99.99,,2013-02-06 18:32:00,
2013-02-06 12:42:00,46.0,27.0,-100.00,SSW,205,6.0,6.0,48,-99.99,,,-99.99,,2013-02-06 18:42:00,
2013-02-06 12:52:00,46.0,27.0,-100.00,South,170,9.0,10.0,47,-99.99,,,-99.99,,2013-02-06 18:52:00,
2013-02-06 13:01:00,46.0,27.0,-100.00,South,170,9.0,10.0,47,-99.99,,,-99.99,,2013-02-06 19:01:00,
2013-02-06 13:11:00,45.0,26.0,-100.00,SSE,165,6.0,9.0,46,-99.99,,,-99.99,,2013-02-06 19:11:00,
2013-02-06 13:21:00,45.0,25.0,-100.00,SE,140,3.0,4.0,45,-99.99,,,-99.99,,2013-02-06 19:21:00,
2013-02-06 13:32:00,45.0,25.0,-100.00,SE,140,3.0,4.0,45,-99.99,,,-99.99,,2013-02-06 19:32:00,
2013-02-06 13:42:00,47.0,26.0,-100.00,South,190,9.0,11.0,44,-99.99,,,-99.99,,2013-02-06 19:42:00,
2013-02-06 13:52:00,47.0,25.0,-100.00,South,170,4.0,6.0,43,-99.99,,,-99.99,,2013-02-06 19:52:00,
2013-02-06 14:01:00,47.0,25.0,-100.00,South,170,4.0,6.0,43,-99.99,,,-99.99,,2013-02-06 20:01:00,
2013-02-06 14:11:00,47.0,25.0,-100.00,SSE,160,8.0,10.0,42,-99.99,,,-99.99,,2013-02-06 20:11:00,
2013-02-06 14:21:00,47.0,25.0,-100.00,SE,130,6.0,8.0,42,-99.99,,,-99.99,,2013-02-06 20:21:00,
2013-02-06 14:32:00,47.0,25.0,-100.00,SE,130,6.0,8.0,42,-99.99,,,-99.99,,2013-02-06 20:32:00,
2013-02-06 14:42:00,47.0,25.0,-100.00,SE,125,4.0,6.0,42,-99.99,,,-99.99,,2013-02-06 20:42:00,
2013-02-06 14:52:00,48.0,26.0,-100.00,ESE,105,6.0,8.0,42,-99.99,,,-99.99,,2013-02-06 20:52:00,
2013-02-06 15:02:00,48.0,26.0,-100.00,ESE,105,6.0,8.0,42,-99.99,,,-99.99,,2013-02-06 21:02:00,
2013-02-06 15:11:00,48.0,26.0,-100.00,ESE,120,1.0,3.0,42,-99.99,,,-99.99,,2013-02-06 21:11:00,
2013-02-06 15:21:00,47.0,27.0,-100.00,SE,140,6.0,8.0,45,-99.99,,,-99.99,,2013-02-06 21:21:00,
2013-02-06 15:32:00,47.0,27.0,-100.00,SE,140,6.0,8.0,45,-99.99,,,-99.99,,2013-02-06 21:32:00,
2013-02-06 15:42:00,49.0,27.0,-100.00,East,80,8.0,10.0,43,-99.99,,,-99.99,,2013-02-06 21:42:00,
2013-02-06 15:52:00,49.0,27.0,-100.00,ENE,75,4.0,6.0,42,-99.99,,,-99.99,,2013-02-06 21:52:00,
2013-02-06 16:01:00,49.0,27.0,-100.00,ENE,75,4.0,6.0,42,-99.99,,,-99.99,,2013-02-06 22:01:00,
2013-02-06 16:11:00,49.0,27.0,-100.00,ESE,120,6.0,6.0,42,-99.99,,,-99.99,,2013-02-06 22:11:00,
2013-02-06 16:21:00,49.0,27.0,-100.00,ESE,110,6.0,9.0,42,-99.99,,,-99.99,,2013-02-06 22:21:00,
2013-02-06 16:31:00,49.0,27.0,-100.00,ESE,110,6.0,9.0,42,-99.99,,,-99.99,,2013-02-06 22:31:00,
2013-02-06 16:42:00,48.0,27.0,-100.00,SE,135,6.0,8.0,43,-99.99,,,-99.99,,2013-02-06 22:42:00,
2013-02-06 16:52:00,48.0,26.0,-100.00,ESE,115,10.0,12.0,43,-99.99,,,-99.99,,2013-02-06 22:52:00,
2013-02-06 17:01:00,48.0,26.0,-100.00,ESE,115,10.0,12.0,43,-99.99,,,-99.99,,2013-02-06 23:01:00,
2013-02-06 17:11:00,47.0,25.0,-100.00,ESE,115,9.0,10.0,42,-99.99,,,-99.99,,2013-02-06 23:11:00,
2013-02-06 17:21:00,47.0,26.0,-100.00,ESE,110,9.0,10.0,43,-99.99,,,-99.99,,2013-02-06 23:21:00,
2013-02-06 17:32:00,47.0,26.0,-100.00,ESE,110,9.0,10.0,43,-99.99,,,-99.99,,2013-02-06 23:32:00,
2013-02-06 17:42:00,46.0,26.0,-100.00,ESE,120,8.0,9.0,45,-99.99,,,-99.99,,2013-02-06 23:42:00,
2013-02-06 17:52:00,45.0,26.0,-100.00,East,95,6.0,8.0,47,-99.99,,,-99.99,,2013-02-06 23:52:00,
2013-02-06 18:01:00,45.0,26.0,-100.00,East,95,6.0,8.0,47,-99.99,,,-99.99,,2013-02-07 00:01:00,
2013-02-06 18:11:00,44.0,26.0,-100.00,East,100,6.0,6.0,49,-99.99,,,-99.99,,2013-02-07 00:11:00,
2013-02-06 18:21:00,43.0,27.0,-100.00,East,95,8.0,9.0,52,-99.99,,,-99.99,,2013-02-07 00:21:00,
2013-02-06 18:30:00,42.0,28.0,-100.00,SE,135,6.0,9.0,57,-99.99,,,-99.99,,2013-02-07 00:30:00,
2013-02-06 18:32:00,43.0,27.0,-100.00,East,95,8.0,9.0,52,-99.99,,,-99.99,,2013-02-07 00:32:00,
2013-02-06 18:42:00,43.0,28.0,-100.00,East,100,6.0,10.0,55,-99.99,,,-99.99,,2013-02-07 00:42:00,
2013-02-06 18:52:00,42.0,28.0,-100.00,ESE,120,8.0,10.0,56,-99.99,,,-99.99,,2013-02-07 00:52:00,
2013-02-06 19:01:00,42.0,28.0,-100.00,ESE,120,8.0,10.0,56,-99.99,,,-99.99,,2013-02-07 01:01:00,
2013-02-06 19:11:00,42.0,28.0,-100.00,SE,135,6.0,9.0,57,-99.99,,,-99.99,,2013-02-07 01:11:00,
2013-02-06 19:21:00,42.0,28.0,-100.00,SE,135,6.0,9.0,57,-99.99,,,-99.99,,2013-02-07 01:21:00,
2013-02-06 19:42:00,41.0,27.0,-100.00,SSE,155,3.0,6.0,57,-99.99,,,-99.99,,2013-02-07 01:42:00,
2013-02-06 19:52:00,41.0,28.0,-100.00,SE,125,4.0,6.0,59,-99.99,,,-99.99,,2013-02-07 01:52:00,
2013-02-06 20:01:00,41.0,28.0,-100.00,SE,125,4.0,6.0,59,-99.99,,,-99.99,,2013-02-07 02:01:00,
2013-02-06 20:11:00,40.0,28.0,-100.00,ESE,110,3.0,4.0,60,-99.99,,,-99.99,,2013-02-07 02:11:00,
2013-02-06 20:21:00,40.0,28.0,-100.00,ESE,115,4.0,4.0,62,-99.99,,,-99.99,,2013-02-07 02:21:00,
2013-02-06 20:32:00,40.0,28.0,-100.00,ESE,115,4.0,4.0,62,-99.99,,,-99.99,,2013-02-07 02:32:00,
2013-02-06 20:41:00,40.0,28.0,-100.00,ESE,115,4.0,4.0,62,-99.99,,,-99.99,,2013-02-07 02:41:00,
2013-02-06 21:02:00,39.0,29.0,-100.00,ESE,110,4.0,6.0,65,-99.99,,,-99.99,,2013-02-07 03:02:00,
2013-02-06 21:11:00,39.0,29.0,-100.00,East,100,4.0,6.0,67,-99.99,,,-99.99,,2013-02-07 03:11:00,
2013-02-06 21:21:00,39.0,29.0,-100.00,East,90,6.0,6.0,69,-99.99,,,-99.99,,2013-02-07 03:21:00,
2013-02-06 21:31:00,39.0,29.0,-100.00,East,90,6.0,6.0,69,-99.99,,,-99.99,,2013-02-07 03:31:00,
2013-02-06 21:42:00,38.0,30.0,-100.00,ESE,115,6.0,8.0,70,-99.99,,,-99.99,,2013-02-07 03:42:00,
2013-02-06 21:52:00,38.0,30.0,-100.00,ESE,105,6.0,6.0,70,-99.99,,,-99.99,,2013-02-07 03:52:00,
2013-02-06 22:01:00,38.0,30.0,-100.00,ESE,105,6.0,6.0,70,-99.99,,,-99.99,,2013-02-07 04:01:00,
2013-02-06 22:11:00,39.0,30.0,-100.00,ESE,120,6.0,9.0,71,-99.99,,,-99.99,,2013-02-07 04:11:00,
2013-02-06 22:22:00,39.0,30.0,-100.00,ESE,120,8.0,10.0,71,-99.99,,,-99.99,,2013-02-07 04:22:00,
2013-02-06 22:32:00,39.0,30.0,-100.00,ESE,120,8.0,10.0,71,-99.99,,,-99.99,,2013-02-07 04:32:00,
2013-02-06 22:41:00,39.0,30.0,-100.00,ESE,115,8.0,10.0,71,-99.99,,,-99.99,,2013-02-07 04:41:00,
2013-02-06 22:53:00,38.0,30.0,-100.00,ESE,110,6.0,12.0,72,-99.99,,,-99.99,,2013-02-07 04:53:00,
2013-02-06 23:02:00,38.0,30.0,-100.00,ESE,110,6.0,12.0,72,-99.99,,,-99.99,,2013-02-07 05:02:00,
2013-02-06 23:11:00,38.0,30.0,-100.00,SE,125,6.0,9.0,72,-99.99,,,-99.99,,2013-02-07 05:11:00,
2013-02-06 23:21:00,38.0,30.0,-100.00,SE,125,6.0,6.0,73,-99.99,,,-99.99,,2013-02-07 05:21:00,
2013-02-06 23:30:00,38.0,30.0,-100.00,East,90,4.0,6.0,74,-99.99,,,-99.99,,2013-02-07 05:30:00,
2013-02-06 23:32:00,38.0,30.0,-100.00,SE,125,6.0,6.0,73,-99.99,,,-99.99,,2013-02-07 05:32:00,
2013-02-06 23:42:00,38.0,30.0,-100.00,ESE,120,6.0,8.0,73,-99.99,,,-99.99,,2013-02-07 05:42:00,
2013-02-06 23:52:00,38.0,30.0,-100.00,ESE,115,8.0,10.0,74,-99.99,,,-99.99,,2013-02-07 05:52:00,